Weather History for Cleveland, OH

Change the Weather History Date:

Sunday, June 23, 2013

  Actual Average Record
Temperature  
Mean Temperature 82 °F 71 °F  
Max Temperature 91 °F 81 °F 94 °F (1948)
Min Temperature 72 °F 62 °F 41 °F (1963)
Degree Days  
Heating Degree Days 0 1  
Month to date heating degree days 39 39  
Since 1 June heating degree days 39 39  
Since 1 July heating degree days 5809 5759  
Cooling Degree Days 17 7  
Month to date cooling degree days 96 114  
Year to date cooling degree days 210 173  
Since 1 June cooling degree days 96 114  
Growing Degree Days 32 (Base 50)    
Moisture  
Dew Point 65 °F    
Average Humidity 56    
Maximum Humidity 73    
Minimum Humidity 38    
Precipitation  
Precipitation 0.00 in 0.11 in 2.97 in (1972)
Month to date precipitation 3.65 2.65  
Year to date precipitation 16.24 17.79  
Snow  
Snow 0.00 in 0.00 in - ()
Month to date snowfall 0.0 0.0  
Since 1 June snowfall 0.0 0.0  
Since 1 July snowfall 51.7 68.1  
Snow Depth 0.00 in    
Sea Level Pressure  
Sea Level Pressure 30.08 in    
Wind  
Wind Speed 10 mph (SSW)    
Max Wind Speed 20 mph    
Max Gust Speed 23 mph    
Visibility 10 miles    
Events      
T = Trace of Precipitation, MM = Missing Value Source: NWS Daily Summary

Daily Weather History Graph

Daily Weather History Graph

Search for Another Location

Airport:

Trip Planner

Search our weather history database for the weather conditions in past years. The results will help you decide how hot, cold, wet, or windy it might be!

Date:

Astronomy

Jun. 23, 2013 Rise Set
Actual Time 5:54 AM EDT 9:04 PM EDT
Civil Twilight 5:20 AM EDT 9:38 PM EDT
Nautical Twilight 4:37 AM EDT 10:22 PM EDT
Astronomical Twilight 3:44 AM EDT 11:14 PM EDT
Moon 9:14 PM EDT (6/23) 6:11 AM EDT (6/23)
Length of Visible Light 16h 18m
Length of Day
15h 10m
Full, 100% of the Moon is Illuminated
Jun 23
Full
Jun 30
Last Quarter
Jul 8
New
Jul 15
First Quarter
Jul 22
Full

Hourly Weather History & Observations

Time (EDT) Temp. Heat Index Dew Point Humidity Pressure Visibility Wind Dir Wind Speed Gust Speed Precip Events Conditions
12:51 AM 75.0 °F - 64.9 °F 71% 30.08 in 10.0 mi SSE 4.6 mph - N/A   Partly Cloudy
1:51 AM 75.9 °F - 64.9 °F 69% 30.09 in 10.0 mi South 8.1 mph - N/A   Mostly Cloudy
2:51 AM 73.9 °F - 64.9 °F 73% 30.08 in 10.0 mi WSW 4.6 mph - N/A   Scattered Clouds
3:51 AM 73.0 °F - 64.9 °F 76% 30.09 in 10.0 mi SSW 5.8 mph - N/A   Partly Cloudy
4:51 AM 73.0 °F - 64.9 °F 76% 30.09 in 10.0 mi SSW 6.9 mph - N/A   Partly Cloudy
5:51 AM 73.0 °F - 64.0 °F 73% 30.09 in 10.0 mi South 6.9 mph - N/A   Partly Cloudy
6:51 AM 73.0 °F - 64.9 °F 76% 30.11 in 10.0 mi South 8.1 mph - N/A   Partly Cloudy
7:51 AM 75.0 °F - 64.9 °F 71% 30.12 in 10.0 mi SSW 10.4 mph - N/A   Scattered Clouds
8:51 AM 78.1 °F - 66.0 °F 66% 30.12 in 10.0 mi SSW 10.4 mph - N/A   Scattered Clouds
9:51 AM 82.0 °F 84.9 °F 68.0 °F 62% 30.13 in 10.0 mi SW 8.1 mph - N/A   Scattered Clouds
10:51 AM 82.9 °F 85.4 °F 66.9 °F 58% 30.12 in 10.0 mi SW 11.5 mph - N/A   Scattered Clouds
11:51 AM 84.9 °F 87.1 °F 66.0 °F 53% 30.10 in 10.0 mi SSW 12.7 mph - N/A   Scattered Clouds
12:51 PM 87.1 °F 88.9 °F 64.9 °F 48% 30.09 in 10.0 mi SW 12.7 mph 19.6 mph N/A   Partly Cloudy
1:51 PM 88.0 °F 90.3 °F 66.0 °F 48% 30.08 in 10.0 mi SSW 12.7 mph - N/A   Scattered Clouds
2:51 PM 89.1 °F 90.3 °F 64.0 °F 43% 30.06 in 10.0 mi SSW 13.8 mph 20.7 mph N/A   Mostly Cloudy
3:51 PM 91.0 °F 91.9 °F 63.0 °F 39% 30.06 in 10.0 mi SW 15.0 mph 21.9 mph N/A   Mostly Cloudy
4:51 PM 90.0 °F 90.6 °F 63.0 °F 40% 30.04 in 10.0 mi WSW 12.7 mph - N/A   Mostly Cloudy
5:51 PM 89.1 °F 90.3 °F 64.0 °F 43% 30.03 in 10.0 mi SW 12.7 mph - N/A   Scattered Clouds
6:51 PM 88.0 °F 88.7 °F 63.0 °F 43% 30.02 in 10.0 mi SW 10.4 mph - N/A   Mostly Cloudy
7:51 PM 87.1 °F 87.8 °F 63.0 °F 44% 30.02 in 10.0 mi SSW 12.7 mph - N/A   Mostly Cloudy
8:51 PM 84.0 °F 85.8 °F 64.9 °F 53% 30.03 in 10.0 mi South 9.2 mph - N/A   Mostly Cloudy
9:51 PM 82.0 °F 83.8 °F 64.9 °F 56% 30.06 in 10.0 mi South 8.1 mph - N/A   Mostly Cloudy
10:51 PM 80.1 °F 81.9 °F 64.9 °F 60% 30.08 in 10.0 mi SW 10.4 mph - N/A   Scattered Clouds
11:51 PM 77.0 °F - 62.1 °F 60% 30.08 in 10.0 mi SSW 8.1 mph - N/A   Scattered Clouds